CAPE
618 365 321 412 513 401 395 334 388 253 514 617 506 1154 635 785 998 1223 1145 1273 1014 1261 775 423 329 1286 1513 1158 1360 1724 1561 1554 1034
833 508 348 429 608 583 660 677 570 651 832 917 900 695 1062 1318 1429 1236 1261 682 1239 402 1199 534 360 413 1093 1547 1777 1664 1691 1186 1370
280 821 589 379 686 729 921 737 742 804 1299 1286 1313 1050 1158 1271 1752 1788 1554 1674 882 1081 725 82 1225 789 723 1298 1440 1698 1630 1347 1220
173 109 515 472 802 818 839 782 810 877 1622 1554 1697 1627 1455 1392 1696 1895 1919 1323 1860 985 1684 1515 1409 1206 1582 1503 1367 1478 1549 1354 1419
382 288 248 595 850 965 790 927 999 937 1010 1496 1750 1856 1845 1736 1902 1789 1908 1784 1652 1829 1305 1469 1546 1609 1513 1593 1415 1342 1223 1323 1295
570 454 426 618 677 1203 1093 1208 1246 1163 1238 1417 1850 1840 1929 2189 1897 2143 1907 2002 1627 1879 1873 1771 1687 1794 1506 1534 1681 1635 1226 1294 1608
669 638 588 669 841 1266 1459 1492 1705 1468 1536 1510 1565 1774 2027 1778 2023 1861 1940 1839 2012 1932 2175 1884 1522 1540 1721 1634 1733 1834 1818 1328 1487
86 783 708 803 1013 1269 1493 1650 1853 1856 2198 2101 1908 2242 1883 1750 1668 1888 1907 1811 1815 1971 2184 1945 1849 1656 1683 1753 1710 1522 1503 1566 1505
0 831 973 956 1201 1633 1830 2002 2348 2322 2229 2493 2363 2435 2369 2111 2094 2123 2019 1969 2023 1960 1979 1609 1568 1704 1799 1711 1886 1353 1128 1323 1481
0 20 1182 1144 1390 1895 2093 2308 2411 2569 2447 2851 2557 2546 2417 2240 1964 1918 2037 1804 1448 1513 1366 1368 1305 1344 1405 1837 1897 1556 961 687 740
74 76 1027 1309 1507 2014 2452 2705 2742 2964 2874 2969 2807 2757 2586 2312 2214 2247 2245 1995 2002 1907 1713 1180 1287 1234 1536 1583 1472 1375 980 607 750
0 5 67 1398 1673 2242 2455 2602 2754 2904 2833 2981 2870 2840 2619 2563 2607 2411 2048 1758 1570 1364 1242 1065 965 1090 1208 1195 1291 1049 903 459 711
14 0 0 1190 1932 2397 2378 2285 2629 2815 2847 2904 2843 2817 2717 2547 2221 1959 1450 1455 1437 1153 1146 1268 1311 1175 1340 1323 1148 1124 503 317 439
0 0 0 1466 1941 1791 1748 2044 2511 2752 2798 2819 2702 2343 2171 2124 2078 1811 1263 1168 1094 1088 1173 1157 992 992 992 1010 875 524 181 115 229
0 69 6 1692 1792 1611 1709 1715 2227 2451 2280 2021 1954 2187 2173 2105 1915 1489 1748 1487 1374 874 567 625 591 654 940 579 196 42 26 66 90
0 5 489 0 1404 1740 1634 1754 1689 1570 1785 2062 2100 2047 2133 2221 1458 1562 1507 1001 392 329 465 554 644 1111 945 297 82 57 0 0 0
409 680 827 269 865 1485 1390 1654 1479 1951 2403 2408 2479 1962 1624 1394 1125 850 531 238 249 185 206 591 204 344 351 235 158 188 53 1 0
718 879 1519 1672 1557 1377 1452 1560 1713 2186 2202 1875 1620 1354 1231 1022 652 369 349 1 0 0 0 0 87 40 20 24 127 1 0 0 0
680 1215 1571 1921 1884 1970 1505 1228 1311 1813 1627 1338 1383 1309 981 501 462 38 318 12 0 0 0 0 0 0 0 0 0 0 0 0 0
366 1208 1436 2018 2022 2423 1437 950 1526 937 986 1144 1057 636 443 271 39 170 212 83 0 0 0 0 0 0 0 0 0 0 0 0 0
CIN
-82 -90 -54 -9 -22 -40 -36 -29 -17 -39 -69 -53 -68 -19 -63 -45 -32 -9 -7 -6 -9 -9 -11 -29 -30 -17 -2 -14 -7 -9 -8 -3 -5
-22 -76 -77 -8 -14 -23 -27 -30 -27 -16 -54 -51 -59 -58 -40 -24 -25 -26 -10 -22 -9 -19 -8 -30 -38 -77 -11 -2 -3 -2 -4 -16 -4
-14 -16 -18 -5 -11 -19 -15 -17 -31 -8 -24 -47 -46 -36 -42 -36 -11 -16 -13 -3 -9 -6 -12 -77 -6 -30 -47 -1 -7 -3 -9 -10 -16
-47 -43 -10 -10 -12 -12 -14 -6 -9 -16 -7 -23 -30 -18 -15 -36 -16 -4 -11 -10 -2 -7 -3 -2 -2 -11 -2 -3 -11 -5 -4 -22 -16
-45 -41 -45 -14 -4 -19 -25 -16 -9 -25 -19 -7 -25 -13 -2 -12 -5 -6 -3 -14 -7 -1 -8 -10 -7 -5 -9 -10 -6 -2 -6 -17 -18
-68 -43 -52 -33 -5 -9 -23 -10 -12 -13 -26 -18 -21 -9 -4 -2 -6 -1 -2 -6 -21 -5 -4 -6 -9 -1 -3 -7 -5 -2 -12 -9 -6
-39 -49 -60 -57 -35 -3 -12 -7 -6 -16 -22 -27 -26 -13 -1 -5 -1 -3 -2 -2 -11 -12 -10 -13 -18 -12 -1 -2 -3 -1 -1 -4 -4
-67 -42 -64 -66 -62 -32 -12 -17 -10 -6 -16 -28 -25 -3 -6 -8 -10 -2 -3 -3 -4 -9 -5 -4 -10 -17 -13 -4 -1 -4 -4 -2 -2
-0 -20 -45 -58 -65 -52 -35 -27 -19 -24 -12 -15 -21 -4 -4 -6 -4 -2 -3 -5 -5 -6 -5 -7 -9 -13 -16 -14 -4 -17 -11 -7 -5
-0 -107 -27 -44 -53 -49 -53 -45 -43 -39 -41 -5 -19 -6 -3 -7 -14 -14 -11 -20 -19 -23 -15 -16 -16 -20 -19 -8 -8 -20 -32 -35 -8
-83 -80 -14 -35 -26 -43 -42 -44 -51 -26 -22 -3 -8 -3 -2 -4 -7 -8 -9 -14 -14 -18 -21 -27 -23 -22 -11 -5 -13 -22 -45 -47 -25
-0 -43 -84 -20 -24 -27 -43 -43 -54 -37 -24 -7 -8 -3 -3 -2 -2 -5 -5 -8 -13 -13 -19 -31 -32 -24 -17 -15 -14 -25 -38 -77 -22
-502 -9 -0 -38 -10 -28 -54 -66 -62 -40 -24 -25 -23 -15 -12 -9 -15 -14 -24 -7 -14 -22 -17 -10 -7 -15 -4 -5 -3 -6 -63 -83 -40
-0 -0 -0 -5 -15 -72 -89 -86 -71 -43 -34 -42 -48 -57 -61 -46 -35 -33 -48 -32 -25 -11 -7 -6 -18 -19 -20 -7 -29 -87 -131 -141 -81
-0 -107 -113 -5 -18 -53 -69 -95 -88 -71 -76 -91 -91 -80 -61 -49 -48 -51 -17 -14 -8 -25 -39 -13 -28 -25 -3 -59 -164 -308 -276 -163 -112
-7 -144 -22 -0 -19 -15 -52 -63 -112 -124 -113 -84 -84 -70 -41 -35 -78 -28 -32 -43 -119 -114 -46 -24 -3 -0 -2 -77 -224 -228 -0 -0 -0
-31 -12 -15 -37 -48 -21 -86 -53 -70 -28 -19 -41 -51 -95 -98 -109 -112 -126 -148 -200 -169 -172 -140 -41 -93 -50 -44 -63 -113 -78 -182 -4 -0
-24 -41 -9 -10 -15 -30 -97 -98 -52 -9 -10 -60 -85 -110 -95 -116 -135 -178 -163 -61 -0 -0 -0 -0 -74 -198 -217 -172 -92 -116 -0 -0 -0
-26 -28 -30 -35 -34 -17 -49 -135 -99 -34 -45 -65 -42 -50 -79 -149 -139 -275 -168 -300 -0 -0 -0 -0 -0 -0 -0 -0 -0 -0 -0 -0 -0
-35 -21 -35 -28 -20 -7 -66 -5 -23 -79 -112 -23 -28 -97 -145 -152 -161 -151 -157 -217 -0 -0 -0 -0 -0 -0 -0 -0 -0 -0 -0 -0 -0
Wind_Speed
17 17 20 14 12 17 17 16 15 15 17 17 21 23 22 23 28 2 14 18 15 17 15 22 20 22 26 5 9 7 22 21 15
12 15 16 19 16 18 16 16 15 16 16 16 19 24 22 19 13 29 20 10 28 27 15 20 16 16 30 21 9 10 17 22 22
11 12 15 18 18 19 17 16 16 16 14 16 16 19 20 18 15 14 32 28 14 17 20 33 16 5 8 28 15 15 17 23 17
11 9 8 13 17 19 17 15 16 13 13 14 14 16 16 16 15 14 18 33 27 22 23 23 29 13 8 15 17 18 14 18 26
9 9 6 6 10 16 16 15 15 13 16 14 15 16 17 13 11 13 12 15 33 21 25 29 26 24 22 22 22 20 17 10 18
7 7 6 4 6 9 14 12 14 15 16 15 14 16 18 13 7 8 15 11 11 10 11 23 26 22 19 19 18 22 19 21 18
1 5 8 6 5 5 9 10 8 15 16 16 14 13 15 15 11 9 9 9 8 6 5 6 14 25 23 14 13 17 22 22 20
31 11 10 9 7 6 6 8 8 8 14 16 16 12 13 12 12 9 6 8 10 5 5 7 13 21 27 25 19 18 16 24 26
22 9 11 13 10 8 8 6 5 5 5 8 10 9 9 9 5 8 5 17 26 22 15 15 13 17 22 24 24 17 16 16 21
16 45 14 12 12 10 8 6 4 3 5 6 8 10 9 7 5 7 8 24 34 32 20 18 20 26 27 25 29 36 38 31 27
23 7 11 11 11 9 6 5 4 2 4 8 9 10 10 6 5 1 2 11 19 23 21 22 24 25 26 28 30 33 36 34 30
34 17 22 10 13 11 7 5 3 3 3 3 5 8 10 9 7 5 4 1 4 9 8 12 23 23 23 28 31 33 34 32 27
34 19 47 33 16 14 9 6 4 3 4 4 3 5 6 7 5 4 5 3 3 5 5 6 13 12 25 23 26 27 27 28 27
28 45 63 26 23 18 13 10 6 5 4 3 3 2 3 4 5 6 5 5 6 6 9 11 12 9 8 15 20 19 20 19 16
44 39 18 15 10 9 10 12 9 5 4 2 1 2 3 6 8 9 10 9 9 11 12 11 10 9 15 17 18 15 15 14 14
41 50 34 25 9 3 4 4 8 6 4 3 1 2 4 6 9 12 11 12 14 17 13 13 12 11 13 15 15 14 13 13 14
30 36 34 22 34 7 4 3 3 2 3 3 2 3 4 8 10 12 14 14 13 14 19 15 14 17 16 16 15 14 14 14 14
32 40 32 28 26 8 7 5 4 3 5 6 7 5 6 9 11 12 13 17 17 18 19 19 18 19 18 16 15 14 16 16 16
36 35 35 31 29 20 9 14 10 7 6 8 8 8 8 9 8 11 11 14 17 18 18 18 16 16 17 16 13 13 14 14 14
34 33 33 34 32 18 14 16 9 6 7 10 10 8 8 8 14 9 10 12 13 15 16 15 14 13 13 13 10 11 11 13 13
Wind_Direction
141 148 165 152 152 148 149 148 143 141 145 148 159 164 167 175 194 318 155 271 279 268 288 270 274 268 235 48 343 27 247 230 181
124 137 146 157 151 155 149 150 149 147 147 146 155 169 168 169 164 215 270 282 251 260 288 213 288 296 232 268 339 340 300 271 254
70 131 145 155 152 150 151 149 152 152 151 151 152 161 165 166 164 166 214 247 282 281 277 238 284 357 181 241 307 311 304 277 316
51 43 110 145 151 154 153 155 151 155 156 157 157 163 163 162 163 163 175 225 260 272 273 274 269 301 311 305 305 300 316 305 265
54 30 23 125 140 147 152 153 155 158 161 162 164 162 168 167 164 166 164 174 230 276 272 269 282 289 292 293 293 298 305 322 307
78 65 60 92 136 145 150 154 159 162 162 162 164 165 171 170 187 177 177 174 173 177 287 278 277 287 294 295 296 293 298 296 303
193 104 104 98 126 145 144 146 151 158 165 166 167 171 172 177 182 191 188 184 191 193 205 273 290 279 287 299 300 297 292 293 296
254 142 128 122 122 137 146 144 150 157 156 163 166 167 172 177 180 191 225 273 283 208 256 285 292 287 281 286 295 298 298 290 288
277 164 140 135 133 134 141 148 146 152 160 157 160 165 169 169 180 184 214 286 272 281 288 290 293 292 290 289 288 294 275 294 294
295 242 170 148 142 143 143 147 158 156 151 140 154 161 163 166 170 175 176 210 250 264 287 292 293 289 289 291 286 276 271 288 289
299 263 186 169 158 151 152 146 138 144 132 139 138 148 153 144 149 150 319 304 292 288 293 292 292 293 294 292 289 285 279 284 288
298 266 267 193 167 153 148 152 140 124 123 125 122 129 138 136 129 125 356 349 328 321 325 315 292 298 302 294 290 289 286 289 290
289 294 243 212 167 143 143 148 143 132 130 127 125 116 112 112 85 93 123 88 36 352 344 337 321 322 298 306 304 305 303 296 292
302 278 255 171 162 149 149 146 144 146 147 142 117 62 33 41 60 84 67 37 8 358 341 333 335 344 346 327 320 324 320 319 314
276 255 294 202 163 148 146 145 144 156 169 160 108 36 4 340 343 353 347 352 353 348 337 339 342 346 332 330 330 336 339 341 336
264 266 310 307 195 129 132 175 140 155 175 186 225 321 330 350 337 329 350 337 328 322 330 332 331 337 335 332 340 344 347 345 338
292 283 292 322 151 118 115 215 181 194 212 200 219 286 308 322 327 328 329 334 334 329 318 320 325 321 323 324 329 336 340 342 344
288 286 295 290 296 222 186 178 193 199 229 241 261 276 294 311 319 329 334 326 324 323 320 316 316 317 315 321 324 327 325 327 331
280 282 286 289 288 275 226 208 188 197 228 243 246 262 280 300 310 328 333 333 324 324 327 325 323 324 322 328 335 336 336 337 337
276 279 278 281 284 283 269 276 239 221 231 244 244 250 265 287 298 322 327 331 340 333 334 334 333 336 339 347 355 349 349 350 346